Torna al catalogo

STARLINK-32488

AttivoComunicazioniVLEO
NORAD 62125·PAYLOAD·🇺🇸 United States

Lanciato Nov 27, 2024 da Cape Canaveral Space Force Station

Loading…

Prossimi Passaggi (prossime 24 ore)

TLE

AggiornatoSource: CelesTrak SupGP

Epoca: Sep 15, 2026, 03:38 UTC

1 62125C 24222M   26258.15187500  .00055979  00000+0  20280-2 0  2584
2 62125  42.9998 146.5484 0001404 281.5373 332.9751 15.27543906    12

Traccia STARLINK-32488 in tempo reale con AllMySat

Download on the App Store